EW9065 Weather Reports


time (UTC)temp
F
wind
direction
speed
knots
gust
knots
rain 1hr
in
rain 24hr
in
rain mn
in
humidity
%
barometer
mb
20210613233046 72 57 0.0 0.0 0.00 0.00 0.00 67 1005.1
20210613231653 73 57 0.0 0.0 0.00 0.00 0.00 66 1005.1
20210613230331 73 57 0.0 0.0 0.00 0.00 0.00 65 1005.1
20210613224615 74 57 0.0 0.0 0.00 0.00 0.00 63 1005.0
20210613223048 75 57 0.0 0.0 0.00 0.00 0.00 62 1005.1
20210613221602 76 57 0.0 0.0 0.00 0.00 0.00 59 1005.1
20210613220040 77 95 0.0 0.0 0.00 0.00 0.00 57 1005.0
20210613214553 77 81 0.0 0.0 0.00 0.00 0.00 57 1005.1
20210613213118 77 59 0.0 0.0 0.00 0.00 0.00 55 1005.1
20210613211552 78 68 0.0 0.0 0.00 0.00 0.00 55 1005.1
20210613210042 79 65 0.0 0.0 0.00 0.00 0.00 53 1005.3
20210613204625 81 57 0.0 0.0 0.00 0.00 0.00 48 1005.4
20210613203034 83 175 0.0 0.0 0.00 0.00 0.00 46 1005.2
20210613201532 83 112 0.0 0.0 0.00 0.00 0.00 49 1005.4
20210613200116 83 29 0.0 0.0 0.00 0.00 0.00 50 1005.4
20210613194602 83 82 0.0 0.0 0.00 0.00 0.00 46 1005.4
20210613193038 82 22 0.0 0.0 0.00 0.00 0.00 45 1005.6
20210613191531 81 221 0.0 0.0 0.00 0.00 0.00 47 1005.6
20210613190045 82 94 0.0 0.0 0.00 0.00 0.00 43 1005.7
20210613184605 84 81 0.0 0.0 0.00 0.00 0.00 44 1005.8
20210613183107 83 108 0.0 0.0 0.00 0.00 0.00 47 1005.7
20210613181622 82 63 0.0 0.0 0.00 0.00 0.00 52 1005.9
20210613180056 82 266 0.0 0.0 0.00 0.00 0.00 42 1005.8
20210613174635 82 77 0.0 0.0 0.00 0.06 0.00 48 1006.0
20210613173034 83 147 0.0 0.0 0.00 0.06 0.00 43 1006.1
20210613171528 82 76 0.0 0.0 0.00 0.06 0.00 48 1006.2
20210613170009 82 148 0.0 0.0 0.00 0.06 0.00 47 1006.2
20210613164507 82 40 0.0 0.0 0.00 0.15 0.00 47 1006.2
20210613163007 81 196 0.0 0.0 0.00 0.15 0.00 48 1006.4
20210613161647 80 218 0.0 0.0 0.00 0.15 0.00 50 1006.5
20210613160218 78 106 0.0 0.0 0.00 0.15 0.00 58 1006.5
20210613154625 78 86 0.0 0.0 0.00 0.18 0.00 62 1006.6
20210613153219 78 86 0.0 0.0 0.00 0.18 0.00 55 1006.8
20210613151709 78 105 0.0 0.0 0.00 0.18 0.00 53 1006.8
20210613150142 77 86 0.0 0.0 0.00 0.18 0.00 53 1006.8
20210613144553 75 128 0.0 0.0 0.00 0.20 0.00 57 1006.8
20210613143115 74 181 0.0 0.0 0.00 0.20 0.00 61 1006.7
20210613141628 73 183 0.0 0.0 0.00 0.20 0.00 64 1006.8
20210613140104 71 139 0.0 0.0 0.00 0.20 0.00 65 1006.9
20210613134635 70 197 0.0 0.0 0.00 0.22 0.00 69 1006.9
20210613133038 69 190 0.0 0.0 0.00 0.22 0.00 70 1006.9
20210613131532 68 148 0.0 0.0 0.00 0.22 0.00 76 1006.9
20210613130051 67 105 0.0 0.0 0.00 0.22 0.00 75 1006.9
20210613124525 66 109 0.0 0.0 0.00 0.24 0.00 79 1006.9
20210613123012 64 103 0.0 0.0 0.00 0.24 0.00 84 1006.9
20210613121507 63 103 0.0 0.0 0.00 0.24 0.00 88 1007.0
20210613120009 62 103 0.0 0.0 0.00 0.24 0.00 87 1006.9
20210613114749 61 90 0.0 0.0 0.00 0.27 0.00 88 1006.9
20210613113108 60 90 0.0 0.0 0.00 0.27 0.00 90 1006.8
20210613111634 59 71 0.0 0.0 0.00 0.27 0.00 91 1006.8
20210613110209 58 71 0.0 0.0 0.00 0.27 0.00 92 1006.7
20210613104632 57 71 0.0 0.0 0.00 0.30 0.00 93 1006.7
20210613103110 56 71 0.0 0.0 0.00 0.30 0.00 93 1006.5
20210613101644 56 71 0.0 0.0 0.00 0.30 0.00 93 1006.5
20210613100149 55 71 0.0 0.0 0.00 0.30 0.00 93 1006.4
20210613094601 55 71 0.0 0.0 0.00 0.32 0.00 93 1006.2
20210613093114 55 71 0.0 0.0 0.00 0.32 0.00 93 1006.0
20210613091615 55 71 0.0 0.0 0.00 0.32 0.00 93 1005.9
20210613090116 55 71 0.0 0.0 0.00 0.32 0.00 92 1005.9
20210613084657 55 71 0.0 0.0 0.00 0.34 0.00 92 1005.9
20210613083103 55 71 0.0 0.0 0.00 0.34 0.00 92 1005.8
20210613081538 55 71 0.0 0.0 0.00 0.34 0.00 92 1005.8
20210613080051 55 71 0.0 0.0 0.00 0.34 0.00 92 1005.8
20210613074543 55 71 0.0 0.0 0.00 0.35 0.00 91 1005.9
20210613073038 56 71 0.0 0.0 0.00 0.35 0.00 91 1005.8
20210613071552 55 71 0.0 0.0 0.00 0.35 0.00 91 1005.9
20210613070108 55 71 0.0 0.0 0.00 0.35 0.00 90 1005.8
20210613064545 56 71 0.0 0.0 0.00 0.36 0.00 90 1005.9
20210613063029 56 71 0.0 0.0 0.00 0.36 0.00 90 1006.1
20210613061524 56 71 0.0 0.0 0.00 0.36 0.00 89 1006.0
20210613060023 56 71 0.0 0.0 0.00 0.36 0.00 88 1006.1
20210613054531 57 71 0.0 0.0 0.00 0.36 0.00 88 1006.1
20210613053018 57 71 0.0 0.0 0.00 0.36 0.00 87 1006.3
20210613051530 57 71 0.0 0.0 0.00 0.36 0.00 87 1006.4
20210613050016 57 71 0.0 0.0 0.00 0.36 0.00 86 1006.3
20210613044515 57 71 0.0 0.0 0.00 0.36 0.00 85 1006.2
20210613043016 58 71 0.0 0.0 0.00 0.36 0.00 85 1006.2
20210613041524 58 71 0.0 0.0 0.00 0.36 0.00 84 1006.2
20210613040042 58 71 0.0 0.0 0.00 0.36 0.00 84 1006.2
20210613034535 59 71 0.0 0.0 0.00 0.36 0.36 84 1006.1
20210613033023 59 71 0.0 0.0 0.00 0.36 0.36 86 1006.1
20210613031513 59 71 0.0 0.0 0.00 0.36 0.36 87 1006.1
20210613030018 59 71 0.0 0.0 0.00 0.36 0.36 87 1005.9
20210613024511 59 71 0.0 0.0 0.00 0.36 0.36 86 1005.9
20210613023027 60 71 0.0 0.0 0.00 0.36 0.36 86 1005.9
20210613021538 60 71 0.0 0.0 0.00 0.36 0.36 84 1005.8
20210613020004 60 71 0.0 0.0 0.00 0.36 0.36 85 1005.7
20210613014507 61 71 0.0 0.0 0.00 0.36 0.36 84 1005.6
20210613013004 61 71 0.0 0.0 0.00 0.36 0.36 85 1005.5
20210613011503 62 71 0.0 0.0 0.00 0.36 0.36 83 1005.2
20210613010002 62 71 0.0 0.0 0.00 0.36 0.36 83 1005.1
20210613004505 63 71 0.0 0.0 0.00 0.36 0.36 81 1004.8
20210613003001 64 71 0.0 0.0 0.00 0.36 0.36 79 1004.7
20210613001501 64 71 0.0 0.0 0.00 0.36 0.36 77 1004.6
20210613000237 65 71 0.0 0.0 0.00 0.36 0.36 77 1004.7
20210612234629 66 71 0.0 0.0 0.00 0.36 0.36 77 1004.7